{"data":{"norad_id":58439,"epoch":"2026-05-25T04:44:31.699104Z","epoch_age_seconds":61398,"freshness":"FRESH","line1":"1 58439U 23183C   26145.19758911  .00005240  00000+0  19978-3 0  9992","line2":"2 58439  43.0021 329.6794 0001475 277.9016  82.1668 15.27583032138436","mean_motion":15.27583032,"eccentricity":0.0001475,"inclination_deg":43.0021,"raan_deg":329.6794,"arg_perigee_deg":277.9016,"mean_anomaly_deg":82.1668,"bstar":0.00019978,"rev_number":13843,"period_min":94.266561609726,"perigee_km":482.02799354588,"apogee_km":484.05204076594,"semimajor_km":6861.1770171559,"source":"CELESTRAK","updated_at":"2026-05-25T13:38:18.622066Z"}}